Location: Waldport
(44.4270°N, 124.0680°W)
Time: 21:26:12
(UTC-07:00)

Daily predictions for brighter satellites

Satellite Brightness Start Highest point End
(mag) Time Altitude Azimuth Time Altitude Azimuth Time Altitude Azimuth
COSMOS 2428 3.1 18:36:50 10° NNW 18:42:16 44° ENE 18:47:41 10° SE
Cosmos 44 Rocket 3.9 18:40:07 10° S 18:44:21 34° ESE 18:48:36 10° NE
Cosmos 2333 Rocket 3.2 18:40:00 10° N 18:44:52 27° NE 18:49:43 10° ESE
CORIOLIS 4.2 18:40:07 10° SSE 18:45:30 78° ENE 18:50:57 10° NNW
Cosmos 2366 rocket 4.0 18:40:49 10° S 18:47:00 80° E 18:53:11 10° N
Cosmos 1833 4.2 18:41:42 10° SSW 18:47:23 83° ESE 18:53:02 10° NNE
Cosmos 2219 4.0 18:42:58 10° SSE 18:47:52 30° ESE 18:52:47 10° NE
ERS-2 2.1 18:44:30 10° SSE 18:48:09 67° ENE 18:51:51 10° N
Cosmos 158 Rocket 4.4 18:45:42 10° S 18:50:26 41° ESE 18:55:19 10° NE
MOS 1 4.5 18:46:41 10° SE 18:52:10 52° ENE 18:57:40 10° N
Cosmos 1726 3.5 18:52:08 10° SE 18:54:46 19° E 18:57:23 10° NE
YAOGAN 1 2.5 18:50:57 10° SSE 18:55:14 66° ENE 18:59:33 10° N
APEX 3.3 18:53:28 10° S 18:56:17 33° ESE 18:58:50 10° NE
Cosmos 1048 Rocket 4.4 18:51:56 10° S 18:56:39 39° ESE 19:01:22 10° NE
EO 1 Del DPAF 3.6 18:54:10 10° NNE 18:57:52 43° E 19:01:32 10° S
CZ-4 R/B 1.6 18:53:49 10° S 18:58:00 82° WSW 19:02:09 10° NNW
Cosmos 1420 Rocket 4.0 18:55:58 10° NNW 19:01:19 77° ENE 19:06:35 10° SSE
Landsat 4 3.6 18:57:34 10° NNE 19:01:20 88° ESE 19:05:02 10° SSW
CZ-2C R/B 3.7 19:00:15 10° NNE 19:04:47 88° W 19:09:13 10° SSW
Cosmos 2322 4.1 19:02:43 10° NNW 19:08:26 71° WSW 19:14:06 10° SSE
CZ-4 R/B 4.4 19:06:10 10° SSE 19:10:19 86° ENE 19:14:30 10° NNW
Meteor 1-28 Rocket 3.4 19:07:32 10° N 19:11:20 77° WNW 19:15:04 10° SSW
NOAA 12 4.3 19:08:40 10° SE 19:13:46 50° ENE 19:18:54 10° N
Cosmos 2084 3.7 19:10:47 10° NNW 19:14:21 38° NE 19:17:29 13° ESE
Cosmos 2219 Rocket 2.4 19:09:05 10° NNW 19:14:31 49° ENE 19:19:56 10° SE
Cosmos 1315 Rocket 2.9 19:11:15 10° NNW 19:15:22 84° W 19:19:29 10° S
Cosmos 2221 2.5 19:11:15 10° S 19:15:30 58° E 19:19:49 10° NNE
Cosmos 921 Rocket 3.6 19:14:06 10° NNW 19:18:30 61° WSW 19:22:47 10° S
Cosmos 1000 Rocket 4.5 19:12:46 10° N 19:18:56 60° ENE 19:25:01 10° SSE
METEOR-M 4.1 19:14:28 10° SSE 19:19:49 83° ENE 19:25:12 10° NNW
ALOS 2.4 19:15:32 10° SE 19:20:01 50° ENE 19:24:33 10° N
SKYMED 2 3.5 19:16:15 10° NNE 19:20:37 68° ESE 19:24:55 10° S
Cosmos 1934 Rocket 4.5 19:15:02 10° SSE 19:20:48 38° E 19:26:37 10° NNE
Cosmos 1821 Rocket 4.1 19:16:47 10° SSE 19:22:43 51° E 19:28:45 10° NNE
Thor Agena Rocket 4.3 19:18:56 10° NE 19:23:20 29° E 19:27:42 10° SSE
GP-B 3.8 19:19:54 10° N 19:24:17 59° W 19:28:38 10° SSW
Cosmos 1626 4.5 19:22:58 10° NNW 19:26:13 28° W 19:29:27 10° SSW
Cosmos 1908 3.7 19:31:25 10° SSW 19:35:17 64° W 19:39:11 10° N
SJ-6B 3.6 19:37:14 26° ENE 19:37:30 26° ENE 19:40:39 10° N
Lacrosse 5 rocket 3.6 19:35:40 10° NW 19:38:13 15° N 19:40:29 11° NNE
Aureole 2 Rocket 2.7 19:36:43 10° NNW 19:40:41 86° ENE 19:44:45 10° SSE
BREEZE-M DEB (TANK) 3.5 19:31:34 10° W 19:43:29 78° N 19:45:54 27° E
H-2A R/B 3.1 19:42:31 18° SE 19:45:05 42° ENE 19:48:49 10° N
BREEZE-M DEB (TANK) 1.0 19:44:18 10° WSW 19:46:16 88° NW 19:46:34 63° ENE
Abrixas rocket 2.6 19:44:39 10° WNW 19:47:52 48° NNE 19:48:35 39° NE
Cosmos 44 3.4 19:43:48 10° SW 19:48:06 61° NW 19:52:16 11° NNE
In-Cosmos 22 Rocket 4.3 19:44:18 10° N 19:49:58 55° ENE 19:55:39 10° SSE
Cosmos 1470 Rocket 4.5 19:46:05 10° NNE 19:49:38 28° ENE 19:49:38 28° ENE
DMSP B5D1-3 4.4 19:45:40 10° NNE 19:50:50 81° ESE 19:55:59 10° SSW
Cosmos 2123 Rocket 4.0 19:45:40 10° N 19:51:52 62° E 19:58:04 10° SSE
Cosmos 2237 Rocket 2.3 19:46:25 10° NNW 19:52:01 53° ENE 19:55:32 22° SE
Cosmos 1269 Rocket 4.1 19:46:48 10° SSW 19:52:04 80° WNW 19:57:24 10° NNE
SL-8 R/B 4.1 19:47:36 10° W 19:52:21 56° N 19:54:42 28° ENE
Cosmos 1605 Rocket 4.1 19:51:25 10° SSE 19:57:14 48° E 20:03:02 10° NNE
Cosmos 1302 Rocket 4.5 19:53:13 10° N 19:58:06 38° ENE 19:59:12 34° E
Cosmos 1300 2.5 19:55:10 10° S 19:58:59 74° E 20:02:49 10° NNE
MOS 1-B Rocket 4.3 19:56:55 26° ESE 19:59:36 41° ENE 20:05:27 10° N
Cosmos 2227 Rocket 2.5 19:55:21 10° S 20:00:37 42° ESE 20:03:07 27° NE
Abrixas 3.8 19:59:13 10° WSW 20:00:26 28° W 20:00:26 28° W
BREEZE M DEB (TANK) 1.7 19:58:00 10° WNW 20:02:05 63° NNE 20:02:08 63° NNE
Iridium 4 Rocket 4.1 19:57:27 10° S 20:03:06 68° W 20:09:00 10° N
Sich 1 3.0 19:59:14 10° N 20:03:39 88° WSW 20:08:04 10° S
SL-16 R/B 3.0 19:59:43 10° N 20:04:44 31° NE 20:05:09 30° ENE
FREGAT/IRIS 3.0 20:05:35 52° N 20:05:35 52° N 20:07:58 10° N
NOSS 0 Rocket 3.9 20:00:59 10° NNW 20:07:12 89° WSW 20:13:06 11° SSE
Gbstr 26 Del rocket 4.3 20:03:01 10° WNW 20:07:56 51° SW 20:12:20 18° SSE
COSMO-SKYMED 1 4.1 20:04:32 10° N 20:08:34 37° WNW 20:12:34 10° SW
Spot 2 Rocket 4.5 20:09:46 28° NE 20:09:46 28° NE 20:13:13 10° N
Cosmos 494 Rocket 3.9 20:04:42 10° S 20:09:43 61° ESE 20:13:12 20° NNE
Resurs 01 Rocket 3.0 20:12:41 24° NNE 20:12:41 24° NNE 20:14:53 10° N
USA 234 4.3 20:11:06 23° NE 20:13:56 32° N 20:19:35 10° NW
ATLAS 5 CENTAUR R/B 4.2 20:13:24 10° N 20:16:12 14° NNE 20:17:10 13° NNE
Cosmos 1980 3.6 20:10:51 10° NNW 20:16:33 85° ENE 20:19:50 26° SSE
Cosmos 1110 Rocket 4.1 20:12:09 10° NNW 20:17:29 78° WSW 20:22:01 14° SSE
Meteor 2-3 Rocket 3.7 20:18:34 10° N 20:24:15 57° ENE 20:25:11 51° ESE
USA 32 3.9 20:19:25 10° N 20:24:40 65° E 20:25:56 49° SE
CZ-4C R/B 2.9 20:23:24 10° WSW 20:28:35 52° NW 20:33:20 16° NNE
Cosmos 2333 Rocket 2.9 20:23:52 10° NW 20:29:27 54° WSW 20:35:02 10° S
Cosmos 1447 Rocket 4.4 20:23:10 10° N 20:29:29 66° E 20:32:06 36° SSE
Cosmos 1726 4.2 20:26:38 10° SW 20:29:52 28° WNW 20:33:05 10° NNW
Cosmos 2219 4.3 20:26:20 10° SW 20:31:49 45° WNW 20:37:19 10° NNE
Meteor 2-10 4.5 20:28:13 10° SSW 20:33:11 59° WNW 20:38:19 10° N
Cosmos 1633 Rocket 3.8 20:29:42 10° NNW 20:34:00 52° W 20:38:17 10° S
Cosmos 1328 Rocket 3.6 20:30:29 10° S 20:39:00 12° N 20:39:17 10° N
Cosmos 2297 Rocket 2.0 20:32:09 10° SSW 20:37:45 70° ESE 20:37:56 69° E
Envisat 3.6 20:45:15 44° NNE 20:45:15 44° NNE 20:48:51 10° N
Cosmos 2251 Rocket 3.4 20:40:57 10° SSW 20:46:15 89° WNW 20:46:42 76° NNE
Cosmos 2082 3.5 20:42:37 10° SSW 20:48:19 82° ESE 20:48:19 82° ESE
Cosmos 2219 Rocket 4.1 20:53:35 10° NW 20:58:10 26° WSW 21:02:44 10° SSW
Lacrosse 5 rocket 4.1 21:15:20 10° NNW 21:16:09 14° NNW 21:16:09 14° NNW
USA 267 4.3 21:23:21 33° SSW 21:23:21 33° SSW 21:26:46 10° SW
BREEZE M DEB (TANK) 4.3 21:10:45 10° WNW 21:22:11 60° WSW 21:22:11 60° WSW
Cosmos 2237 Rocket 4.1 21:31:10 10° NW 21:35:42 25° WSW 21:37:26 21° SW
Cosmos 2227 Rocket 3.7 21:39:43 10° WSW 21:44:47 33° NW 21:45:03 33° NW
Resurs 01 Rocket 4.4 21:50:16 14° NW 21:50:16 14° NW 21:51:09 10° NW
SL-16 R/B 3.7 21:43:37 10° NW 21:47:03 33° WNW 21:47:03 33° WNW
USA 234 4.2 21:58:27 40° NNW 21:58:27 40° NNW 22:02:38 10° NW
ATLAS 5 CENTAUR R/B 4.4 21:57:09 10° NNW 21:58:43 18° NNW 21:58:43 18° NNW
CZ-3A R/B 4.2 22:05:39 10° NW 22:17:11 58° W 22:17:11 58° W
